Погода в Ростилово

Россия / Вологодская область     58°47′58″N   40°15′55″E
темп.,
°C
ветер,
м/с
пор.,
м/с
влажн.,
%
обл.,
%
осадки,
мм/ч
давл.,
гПа
погр.,
м
4 июля, пн
пн400:00+15всв11780 0.0 101611
03:00+13всв11891 0.0 101711
06:00+17в12773 0.0 1017114
09:00+22вюв22535 0.0 1017839
12:00+26в12415 0.0 10161676
15:00+27ссв23375 0.0 10152113
18:00+25св22485 0.0 1015775
21:00+19юв22710 0.0 101536
5 июля, вт
вт500:00+16ю25765 0.0 101684
03:00+15ю22810 0.0 101639
06:00+18ю25763 0.0 1016150
09:00+24ююз35515 0.0 1016713
12:00+27ююз34425 0.0 10151675
15:00+28ююз444096 0.0 10142238
18:00+25ююз485471 0.0 1013680
21:00+18ююз268829 0.8 1013114
6 июля, ср
ср600:00+17ю299546 2.9 1013198
03:00+16ююз2798100 3.8 1012160
06:00+18юз259678 0.0 1012156
09:00+22зюз3475100 0.1 1013597
12:00+26зюз345233 0.1 10121655
15:00+25зсз3457100 0.6 10131369
18:00+25з236056 0.0 1012935
21:00+19всв118225 0.1 101211
7 июля, чт
чт700:00+17юв238555 0.0 101152
03:00+17ююв31092100 0.1 1010300
06:00+16ю2498100 0.6 1009164
09:00+20юз4791100 0.8 1009622
12:00+18з479299 1.8 1012631
15:00+22зсз366089 1.9 10131453
18:00+22ссз245831 0.0 10141198
21:00+16в11865 0.0 101511
8 июля, пт
пт800:00+14ююв229119 0.0 101636
03:00+16ююв258538 0.0 1016122
06:00+17ю268184 0.0 1016188
09:00+21ююз3457100 0.0 1016646
12:00+24ююз3449100 0.1 10161679
15:00+25ююз344798 0.3 10152121
18:00+18юз228896 1.1 101542
21:00+17ююз228928 1.3 101525